COSMOS 1275 DEB, 12768

Orbit data source: Space-Track

COSMOS 1275 DEB, 12768 is space debris in LEO originally from a launch on Thu, 04 Jun 1981 UTC launched from the Plesetsk Missile And Space Complex (PKMTR). Debris objects in space refer to the collection of defunct objects orbiting the Earth. Examples of debris include non-operational satellites, rocket bodies, and fragments generated from explosions, collisions, or faulty payload assembly.

Loading next visibility...
Identifier
12768, 1981-053DM
Orbit
LEO
Country
Flag of CISCIS
Related business
Manufacturer
Unknown
Mission
Spacecraft
Bus & Motor
Unknown
Mass
Unknown
Launch date (UTC)
1981-06-04 (45 years ago)
Launch vehicle
Unknown
Launch site
Plesetsk Missile And Space Complex (PKMTR)
Object type
Payload
Rocket body
Debris
Shape & HBR
Unknown shape, 0.1 m
Radar Cross Section
Small (<0.1 m²)

Expand to show TLE details & history
Last TLE update: 15 hours ago

TLE from 15 hours ago
0 COSMOS 1275 DEB
1 12768U 81053DM  26119.51786316  .00000601  00000-0  49194-3 0  9994
2 12768  82.9285 137.3813 0046914 248.1137 265.2371 13.87509683252843
Epoch: 2026-04-29T12:25Z
TLE epoch observation values (Epoch: 2026-04-29T12:25:43.377Z)
Latitude
26.99828°
Longitude
-90.13185°
Altitude
943.685 km
Speed
7.381 km/s
True Right ascension
20h 55m 06s
True Declination
26° 51' 47"
Sunlit
Object was in daylight at epoch
Visualization orbit readout
Latitude
Unknown
Longitude
Unknown
Altitude
Unknown
Speed
Unknown
Apparent Right ascension
Unknown
Apparent Declination
Unknown
Sunlit
N/A
Visualization observer readout
Local Sidereal Time
10:29:29
Azimuth
Unknown
Elevation
Unknown
Doppler factor
Unknown
Orbital elements
Apogee altitude
968.81 km
Perigee altitude
900.196 km
Semi-major axis
7,312.64 km
Eccentricity
0.00469
Inclination
82.9285°
RAAN
137.3813°
Arg. of periapsis
248.1137°
True anomaly
264.70163°
Mean anomaly
265.2371°
Eccentric anomaly
264.96934°
Mean motion
3.47082 °/min
Orbital period
103.72 mins
BSTAR
0.00049194
Loading maneuver chart data...
Computing Atmospheric mass density...
Loading historical data...
Loading historical data...
Loading historical data...
Loading historical data...
Loading historical data...
Loading historical data...
Loading historical data...

Documentation

Showing up to 5 results
|